EW9119 Weather Reports


time (UTC)temp
F
wind
direction
speed
knots
gust
knots
rain 1hr
in
rain 24hr
in
rain mn
in
humidity
%
barometer
mb
20260904194623 96 51 0.0 0.0 0.00 0.00 0.00 46 1010.4
20260904193043 96 313 0.0 0.0 0.00 0.00 0.00 47 1010.6
20260904191535 96 315 0.0 0.0 0.00 0.00 0.00 47 1011.0
20260904190030 95 317 0.0 0.9 0.00 0.00 0.00 48 1011.2
20260904184525 95 76 0.0 0.0 0.00 0.00 0.00 48 1011.3
20260904183020 96 31 0.0 0.0 0.00 0.00 0.00 45 1011.6
20260904181516 95 107 0.0 0.9 0.00 0.00 0.00 48 1011.8
20260904180012 96 300 0.0 0.0 0.00 0.00 0.00 46 1012.0
20260904174509 98 340 0.0 0.0 0.00 0.00 0.00 43 1012.2
20260904173002 97 300 0.0 0.0 0.00 0.00 0.00 45 1012.4
20260904171559 96 325 0.0 0.0 0.00 0.00 0.00 49 1012.5
20260904170054 97 32 0.0 0.0 0.00 0.00 0.00 46 1012.6
20260904164555 96 296 0.0 0.0 0.00 0.00 0.00 49 1012.7
20260904163046 96 31 0.0 0.0 0.00 0.00 0.00 47 1013.0
20260904161546 95 300 0.0 0.0 0.00 0.00 0.00 49 1013.3
20260904160040 95 221 0.0 0.0 0.00 0.00 0.00 50 1013.4
20260904154533 96 318 0.0 0.0 0.00 0.00 0.00 51 1013.4
20260904153029 94 106 0.0 0.0 0.00 0.00 0.00 51 1013.4
20260904151536 93 284 0.0 0.0 0.00 0.00 0.00 56 1013.5
20260904150020 92 311 0.0 0.0 0.00 0.00 0.00 59 1013.7
20260904144516 91 308 0.0 0.0 0.00 0.00 0.00 60 1013.6
20260904143011 90 314 0.0 0.0 0.00 0.00 0.00 63 1013.6
20260904141506 88 336 0.0 0.9 0.00 0.00 0.00 66 1013.8
20260904140002 88 294 0.0 1.7 0.00 0.00 0.00 65 1013.7
20260904134609 86 291 0.0 0.0 0.00 0.00 0.00 67 1013.8
20260904133108 85 269 0.0 0.0 0.00 0.00 0.00 67 1013.8
20260904131602 83 302 0.0 0.0 0.00 0.00 0.00 65 1014.0
20260904130045 82 298 0.0 0.0 0.00 0.00 0.00 59 1014.3
20260904124541 80 302 0.0 0.0 0.00 0.00 0.00 37 1014.2
20260904123037 78 307 0.0 0.0 0.00 0.00 0.00 12 1014.4
20260904121537 75 96 0.0 0.0 0.00 0.00 0.00 1 1014.3
20260904120032 74 96 0.0 0.0 0.00 0.00 0.00 1 1014.2
20260904114524 74 98 0.0 0.0 0.00 0.00 0.00 1 1014.1
20260904113031 74 98 0.0 0.0 0.00 0.00 0.00 1 1014.1
20260904111522 74 98 0.0 0.0 0.00 0.00 0.00 1 1013.9
20260904110010 74 98 0.0 0.0 0.00 0.00 0.00 1 1013.8
20260904104507 74 98 0.0 0.0 0.00 0.00 0.00 1 1013.6
20260904103004 74 98 0.0 0.0 0.00 0.00 0.00 1 1013.5
20260904101559 74 98 0.0 0.0 0.00 0.00 0.00 1 1013.5
20260904094549 75 98 0.0 0.0 0.00 0.00 0.00 1 1013.6
20260904093052 75 98 0.0 0.0 0.00 0.00 0.00 5 1013.5
20260904091542 75 98 0.0 0.0 0.00 0.00 0.00 3 1013.1
20260904090046 76 98 0.0 0.0 0.00 0.00 0.00 1 1013.0
20260904084535 76 98 0.0 0.0 0.00 0.00 0.00 1 1012.7
20260904083032 76 98 0.0 0.0 0.00 0.00 0.00 1 1012.7
20260904081527 76 99 0.0 0.0 0.00 0.00 0.00 1 1012.4
20260904080035 76 101 0.0 0.0 0.00 0.00 0.00 4 1012.5
20260904074529 76 101 0.0 0.0 0.00 0.00 0.00 9 1012.4
20260904073018 76 101 0.0 0.0 0.00 0.00 0.00 14 1012.6
20260904071516 76 101 0.0 0.0 0.00 0.00 0.00 19 1012.6
20260904070013 76 101 0.0 0.0 0.00 0.00 0.00 25 1012.7
20260904064510 76 101 0.0 0.0 0.00 0.00 0.00 31 1013.0
20260904063014 76 101 0.0 0.0 0.00 0.00 0.00 36 1013.2
20260904061513 76 101 0.0 0.0 0.00 0.00 0.00 39 1013.6
20260904060006 76 101 0.0 0.0 0.00 0.00 0.00 44 1013.8
20260904054600 76 101 0.0 0.0 0.00 0.00 0.00 47 1013.9
20260904053103 77 101 0.0 0.0 0.00 0.00 0.00 49 1014.0
20260904051556 77 101 0.0 0.0 0.00 0.00 0.00 57 1014.2
20260904050115 77 101 0.0 0.0 0.00 0.00 0.00 59 1014.3
20260904044558 78 101 0.0 0.0 0.00 0.00 0.00 59 1014.2
20260904043050 78 101 0.0 0.0 0.00 0.00 0.00 63 1014.0
20260904041549 78 101 0.0 0.0 0.00 0.00 0.00 66 1014.0
20260904040045 79 101 0.0 0.0 0.00 0.00 0.00 66 1014.0
20260904034547 79 101 0.0 0.0 0.00 0.00 0.00 67 1013.8
20260904033037 79 101 0.0 0.0 0.00 0.00 0.00 68 1013.8
20260904031536 80 101 0.0 0.0 0.00 0.00 0.00 68 1013.9
20260904030029 80 101 0.0 0.0 0.00 0.00 0.00 69 1013.9
20260904024523 81 101 0.0 0.0 0.00 0.00 0.00 69 1014.0
20260904023019 81 101 0.0 0.0 0.00 0.00 0.00 69 1014.0
20260904021516 81 101 0.0 0.0 0.00 0.00 0.00 69 1014.0
20260904020009 82 101 0.0 0.0 0.00 0.00 0.00 69 1013.8
20260904014505 82 101 0.0 0.0 0.00 0.00 0.00 69 1013.7
20260904013000 83 101 0.0 0.0 0.00 0.00 0.00 68 1013.5
20260904011607 84 101 0.0 0.0 0.00 0.00 0.00 67 1013.5
20260904010052 84 101 0.0 0.0 0.00 0.00 0.00 66 1013.2
20260904004548 85 101 0.0 0.0 0.00 0.00 0.00 65 1013.1
20260904003044 86 101 0.0 0.0 0.00 0.00 0.00 64 1012.8
20260904001539 87 101 0.0 0.0 0.00 0.00 0.00 62 1012.6
20260904000035 88 101 0.0 0.0 0.00 0.00 0.00 60 1012.5
20260903234530 89 101 0.0 0.0 0.00 0.00 0.00 59 1012.3
20260903233026 90 101 0.0 0.0 0.00 0.00 0.00 58 1012.3
20260903231522 90 101 0.0 0.0 0.00 0.00 0.00 56 1012.1
20260903230017 91 101 0.0 0.0 0.00 0.00 0.00 56 1012.0
20260903224514 91 69 0.0 0.0 0.00 0.00 0.00 55 1012.0
20260903223013 92 89 0.0 0.0 0.00 0.00 0.00 54 1012.0
20260903221504 92 91 0.0 0.0 0.00 0.00 0.00 53 1012.0
20260903220108 92 92 0.0 0.0 0.00 0.00 0.00 52 1012.1
20260903214555 93 94 0.0 0.0 0.00 0.00 0.00 51 1012.1
20260903213051 95 360 0.0 0.0 0.00 0.00 0.00 47 1012.2
20260903211546 96 342 0.0 0.0 0.00 0.00 0.00 47 1012.2
20260903210042 95 36 0.0 0.0 0.00 0.00 0.00 47 1012.2
20260903204537 95 71 0.0 0.0 0.00 0.00 0.00 45 1012.4
20260903203035 95 164 0.0 0.0 0.00 0.00 0.00 46 1012.5
20260903201529 94 140 0.0 0.0 0.00 0.00 0.00 48 1012.7
20260903200038 93 59 0.0 0.0 0.00 0.00 0.00 45 1012.9